Time,TemperatureF,DewpointF,PressureIn,WindDirection,WindDirectionDegrees,WindSpeedMPH,WindSpeedGustMPH,Humidity,HourlyPrecipIn,Conditions,Clouds,dailyrainin,SoftwareType,DateUTC
2013-05-15 00:00:00,71.1,59.6,29.86,WSW,252,6.0,11.0,67,0.00,,,0.00,Wunderground v.1.15,2013-05-15 04:00:00,
2013-05-15 00:20:00,71.1,59.2,29.85,WSW,238,6.0,9.0,66,0.00,,,0.00,Wunderground v.1.15,2013-05-15 04:20:00,
2013-05-15 00:30:00,71.3,58.9,29.85,SSW,213,6.0,7.0,65,0.00,,,0.00,Wunderground v.1.15,2013-05-15 04:30:00,
2013-05-15 00:41:00,71.5,58.7,29.85,South,177,7.0,7.0,64,0.00,,,0.00,Wunderground v.1.15,2013-05-15 04:41:00,
2013-05-15 00:50:00,71.6,58.8,29.85,SSW,208,6.0,8.0,64,0.00,,,0.00,Wunderground v.1.15,2013-05-15 04:50:00,
2013-05-15 01:00:00,71.9,59.1,29.85,SW,218,7.0,9.0,64,0.00,,,0.00,Wunderground v.1.15,2013-05-15 05:00:00,
2013-05-15 01:10:00,71.9,59.1,29.85,WSW,237,6.0,6.0,64,0.00,,,0.00,Wunderground v.1.15,2013-05-15 05:10:00,
2013-05-15 01:20:00,71.7,58.9,29.84,SW,215,6.0,6.0,64,0.00,,,0.00,Wunderground v.1.15,2013-05-15 05:20:00,
2013-05-15 01:30:00,71.7,58.9,29.84,SW,227,7.0,7.0,64,0.00,,,0.00,Wunderground v.1.15,2013-05-15 05:30:00,
2013-05-15 01:40:00,71.5,59.1,29.84,West,280,7.0,8.0,65,0.00,,,0.00,Wunderground v.1.15,2013-05-15 05:40:00,
2013-05-15 01:50:00,71.2,59.3,29.84,South,173,6.0,6.0,66,0.00,,,0.00,Wunderground v.1.15,2013-05-15 05:50:00,
2013-05-15 01:56:00,71.0,59.1,29.84,SW,235,6.0,6.0,66,0.00,,,0.00,Wunderground v.1.15,2013-05-15 05:56:00,
2013-05-15 02:00:00,71.1,59.2,29.84,West,263,6.0,7.0,66,0.00,,,0.00,Wunderground v.1.15,2013-05-15 06:00:00,
2013-05-15 02:11:00,71.0,59.1,29.84,SW,235,7.0,13.0,66,0.00,,,0.00,Wunderground v.1.15,2013-05-15 06:11:00,
2013-05-15 02:21:00,70.9,59.0,29.84,West,261,7.0,7.0,66,0.00,,,0.00,Wunderground v.1.15,2013-05-15 06:21:00,
2013-05-15 02:31:00,70.8,59.3,29.84,SSW,201,7.0,9.0,67,0.00,,,0.00,Wunderground v.1.15,2013-05-15 06:31:00,
2013-05-15 02:41:00,70.7,59.2,29.83,WSW,248,7.0,11.0,67,0.00,,,0.00,Wunderground v.1.15,2013-05-15 06:41:00,
2013-05-15 02:51:00,70.7,59.2,29.83,SW,225,8.0,9.0,67,0.00,,,0.00,Wunderground v.1.15,2013-05-15 06:51:00,
2013-05-15 03:01:00,70.6,59.1,29.83,WSW,238,7.0,7.0,67,0.00,,,0.00,Wunderground v.1.15,2013-05-15 07:01:00,
2013-05-15 03:10:00,70.7,59.2,29.83,SW,225,8.0,9.0,67,0.00,,,0.00,Wunderground v.1.15,2013-05-15 07:10:00,
2013-05-15 03:16:00,70.8,59.3,29.83,WSW,244,8.0,9.0,67,0.00,,,0.00,Wunderground v.1.15,2013-05-15 07:16:00,
2013-05-15 03:31:00,70.4,59.3,29.84,SSW,208,8.0,10.0,68,0.00,,,0.00,Wunderground v.1.15,2013-05-15 07:31:00,
2013-05-15 03:41:00,70.1,59.0,29.85,WSW,248,7.0,7.0,68,0.00,,,0.00,Wunderground v.1.15,2013-05-15 07:41:00,
2013-05-15 03:51:00,69.7,59.1,29.85,West,265,6.0,7.0,69,0.00,,,0.00,Wunderground v.1.15,2013-05-15 07:51:00,
2013-05-15 03:56:00,69.5,59.3,29.85,WSW,255,6.0,7.0,70,0.00,,,0.00,Wunderground v.1.15,2013-05-15 07:56:00,
2013-05-15 04:11:00,69.2,59.0,29.85,SW,219,6.0,8.0,70,0.00,,,0.00,Wunderground v.1.15,2013-05-15 08:11:00,
2013-05-15 04:21:00,68.8,59.0,29.84,WSW,238,6.0,6.0,71,0.00,,,0.00,Wunderground v.1.15,2013-05-15 08:21:00,
2013-05-15 04:30:00,68.5,59.1,29.85,SW,232,5.0,9.0,72,0.00,,,0.00,Wunderground v.1.15,2013-05-15 08:30:00,
2013-05-15 04:40:00,68.4,59.0,29.84,SW,215,6.0,6.0,72,0.00,,,0.00,Wunderground v.1.15,2013-05-15 08:40:00,
2013-05-15 04:51:00,68.2,58.8,29.84,SW,234,6.0,8.0,72,0.00,,,0.00,Wunderground v.1.15,2013-05-15 08:51:00,
2013-05-15 05:01:00,68.3,58.9,29.85,WSW,255,6.0,6.0,72,0.00,,,0.00,Wunderground v.1.15,2013-05-15 09:01:00,
2013-05-15 05:11:00,68.1,59.1,29.84,SW,228,6.0,6.0,73,0.00,,,0.00,Wunderground v.1.15,2013-05-15 09:11:00,
2013-05-15 05:21:00,67.7,58.7,29.85,South,175,6.0,6.0,73,0.00,,,0.00,Wunderground v.1.15,2013-05-15 09:21:00,
2013-05-15 05:31:00,67.7,59.1,29.85,West,268,5.0,6.0,74,0.00,,,0.00,Wunderground v.1.15,2013-05-15 09:31:00,
2013-05-15 05:36:00,67.6,59.0,29.85,SW,236,6.0,6.0,74,0.00,,,0.00,Wunderground v.1.15,2013-05-15 09:36:00,
2013-05-15 06:45:00,66.9,58.3,29.86,SW,233,6.0,6.0,74,0.00,,,0.00,Wunderground v.1.15,2013-05-15 10:45:00,
2013-05-15 06:51:00,66.9,58.3,29.87,WSW,245,6.0,6.0,74,0.00,,,0.00,Wunderground v.1.15,2013-05-15 10:51:00,
2013-05-15 07:11:00,67.2,58.6,29.87,SW,221,6.0,10.0,74,0.00,,,0.00,Wunderground v.1.15,2013-05-15 11:11:00,
2013-05-15 07:21:00,67.6,58.6,29.87,WSW,239,8.0,8.0,73,0.00,,,0.00,Wunderground v.1.15,2013-05-15 11:21:00,
2013-05-15 07:31:00,67.9,58.5,29.87,SW,236,8.0,8.0,72,0.00,,,0.00,Wunderground v.1.15,2013-05-15 11:31:00,
2013-05-15 07:41:00,68.3,58.5,29.87,SSW,211,8.0,8.0,71,0.00,,,0.00,Wunderground v.1.15,2013-05-15 11:41:00,
2013-05-15 07:51:00,68.7,58.5,29.88,West,265,6.0,6.0,70,0.00,,,0.00,Wunderground v.1.15,2013-05-15 11:51:00,
2013-05-15 08:01:00,69.2,58.6,29.88,SW,233,6.0,6.0,69,0.00,,,0.00,Wunderground v.1.15,2013-05-15 12:01:00,
2013-05-15 08:11:00,69.5,59.3,29.88,SSW,211,6.0,7.0,70,0.00,,,0.00,Wunderground v.1.15,2013-05-15 12:11:00,
2013-05-15 08:21:00,69.8,59.2,29.88,SW,227,6.0,6.0,69,0.00,,,0.00,Wunderground v.1.15,2013-05-15 12:21:00,
2013-05-15 08:31:00,70.3,58.8,29.89,WSW,240,6.0,9.0,67,0.00,,,0.00,Wunderground v.1.15,2013-05-15 12:31:00,
2013-05-15 08:41:00,70.8,59.3,29.88,SW,215,7.0,11.0,67,0.00,,,0.00,Wunderground v.1.15,2013-05-15 12:41:00,
2013-05-15 08:51:00,71.3,58.9,29.89,WNW,290,7.0,7.0,65,0.00,,,0.00,Wunderground v.1.15,2013-05-15 12:51:00,
2013-05-15 09:11:00,72.2,58.5,29.89,WSW,257,7.0,10.0,62,0.00,,,0.00,Wunderground v.1.15,2013-05-15 13:11:00,
2013-05-15 09:31:00,73.3,59.0,29.89,WSW,258,8.0,8.0,61,0.00,,,0.00,Wunderground v.1.15,2013-05-15 13:31:00,
2013-05-15 09:41:00,73.7,59.9,29.89,West,265,7.0,7.0,62,0.00,,,0.00,Wunderground v.1.15,2013-05-15 13:41:00,
2013-05-15 10:01:00,74.4,60.1,29.89,SW,225,7.0,7.0,61,0.00,,,0.00,Wunderground v.1.15,2013-05-15 14:01:00,
2013-05-15 10:06:00,74.7,59.4,29.89,WSW,257,7.0,11.0,59,0.00,,,0.00,Wunderground v.1.15,2013-05-15 14:06:00,
2013-05-15 10:21:00,74.9,58.6,29.89,West,281,8.0,8.0,57,0.00,,,0.00,Wunderground v.1.15,2013-05-15 14:21:00,
2013-05-15 10:31:00,75.5,59.2,29.89,SW,221,7.0,16.0,57,0.00,,,0.00,Wunderground v.1.15,2013-05-15 14:31:00,
2013-05-15 10:41:00,76.0,59.7,29.88,West,263,7.0,13.0,57,0.00,,,0.00,Wunderground v.1.15,2013-05-15 14:41:00,
2013-05-15 11:01:00,76.9,61.0,29.88,WSW,250,7.0,8.0,58,0.00,,,0.00,Wunderground v.1.15,2013-05-15 15:01:00,
2013-05-15 11:11:00,77.3,59.4,29.88,SW,232,8.0,8.0,54,0.00,,,0.00,Wunderground v.1.15,2013-05-15 15:11:00,
2013-05-15 11:21:00,77.7,59.7,29.88,SW,236,8.0,8.0,54,0.00,,,0.00,Wunderground v.1.15,2013-05-15 15:21:00,
2013-05-15 11:51:00,79.2,60.6,29.89,SSW,196,8.0,8.0,53,0.00,,,0.00,Wunderground v.1.15,2013-05-15 15:51:00,
2013-05-15 12:11:00,80.3,61.1,29.89,SW,227,7.0,11.0,52,0.00,,,0.00,Wunderground v.1.15,2013-05-15 16:11:00,
2013-05-15 12:21:00,80.8,59.9,29.88,WSW,255,7.0,12.0,49,0.00,,,0.00,Wunderground v.1.15,2013-05-15 16:21:00,
2013-05-15 12:31:00,81.0,60.0,29.88,SW,236,8.0,8.0,49,0.00,,,0.00,Wunderground v.1.15,2013-05-15 16:31:00,
2013-05-15 12:41:00,81.2,61.4,29.88,SW,229,8.0,11.0,51,0.00,,,0.00,Wunderground v.1.15,2013-05-15 16:41:00,
2013-05-15 12:51:00,81.3,59.7,29.88,SW,229,8.0,9.0,48,0.00,,,0.00,Wunderground v.1.15,2013-05-15 16:51:00,
2013-05-15 13:01:00,81.4,60.4,29.88,WSW,245,9.0,15.0,49,0.00,,,0.00,Wunderground v.1.15,2013-05-15 17:01:00,
2013-05-15 13:11:00,81.2,60.8,29.88,SSW,211,9.0,9.0,50,0.00,,,0.00,Wunderground v.1.15,2013-05-15 17:11:00,
2013-05-15 13:21:00,81.4,60.4,29.88,SW,236,9.0,9.0,49,0.00,,,0.00,Wunderground v.1.15,2013-05-15 17:21:00,
2013-05-15 13:31:00,81.7,61.2,29.88,WSW,238,6.0,6.0,50,0.00,,,0.00,Wunderground v.1.15,2013-05-15 17:31:00,
2013-05-15 13:41:00,81.9,60.9,29.88,West,264,8.0,12.0,49,0.00,,,0.00,Wunderground v.1.15,2013-05-15 17:41:00,
2013-05-15 13:51:00,81.9,60.3,29.87,SSW,204,8.0,13.0,48,0.00,,,0.00,Wunderground v.1.15,2013-05-15 17:51:00,
2013-05-15 14:01:00,82.4,61.9,29.87,SW,222,8.0,8.0,50,0.00,,,0.00,Wunderground v.1.15,2013-05-15 18:01:00,
2013-05-15 14:11:00,82.7,60.4,29.87,SSW,209,6.0,7.0,47,0.00,,,0.00,Wunderground v.1.15,2013-05-15 18:11:00,
2013-05-15 14:21:00,83.0,63.0,29.87,West,260,6.0,6.0,51,0.00,,,0.00,Wunderground v.1.15,2013-05-15 18:21:00,
2013-05-15 14:41:00,83.4,61.1,29.86,West,263,6.0,6.0,47,0.00,,,0.00,Wunderground v.1.15,2013-05-15 18:41:00,
2013-05-15 15:01:00,83.8,62.0,29.85,SW,229,6.0,10.0,48,0.00,,,0.00,Wunderground v.1.15,2013-05-15 19:01:00,
2013-05-15 15:11:00,83.9,60.3,29.85,WSW,246,6.0,6.0,45,0.00,,,0.00,Wunderground v.1.15,2013-05-15 19:11:00,
2013-05-15 15:21:00,84.4,60.7,29.85,WSW,243,6.0,6.0,45,0.00,,,0.00,Wunderground v.1.15,2013-05-15 19:21:00,
2013-05-15 15:41:00,84.4,62.0,29.84,WSW,257,8.0,8.0,47,0.00,,,0.00,Wunderground v.1.15,2013-05-15 19:41:00,
2013-05-15 15:51:00,84.3,60.6,29.83,SW,234,6.0,6.0,45,0.00,,,0.00,Wunderground v.1.15,2013-05-15 19:51:00,
2013-05-15 16:11:00,84.3,61.9,29.83,SW,214,7.0,7.0,47,0.00,,,0.00,Wunderground v.1.15,2013-05-15 20:11:00,
2013-05-15 16:21:00,84.4,60.7,29.83,WSW,250,6.0,11.0,45,0.00,,,0.00,Wunderground v.1.15,2013-05-15 20:21:00,
2013-05-15 16:26:00,84.1,60.5,29.83,SSE,165,7.0,11.0,45,0.00,,,0.00,Wunderground v.1.15,2013-05-15 20:26:00,
2013-05-15 16:41:00,84.2,61.8,29.83,SW,221,7.0,7.0,47,0.00,,,0.00,Wunderground v.1.15,2013-05-15 20:41:00,
2013-05-15 17:01:00,84.6,60.3,29.82,SSW,205,7.0,7.0,44,0.00,,,0.00,Wunderground v.1.15,2013-05-15 21:01:00,
2013-05-15 17:11:00,84.5,60.2,29.82,SW,228,6.0,6.0,44,0.00,,,0.00,Wunderground v.1.15,2013-05-15 21:11:00,
2013-05-15 17:21:00,84.2,60.6,29.82,West,259,8.0,8.0,45,0.00,,,0.00,Wunderground v.1.15,2013-05-15 21:21:00,
2013-05-15 17:31:00,84.1,61.1,29.81,SW,222,7.0,9.0,46,0.00,,,0.00,Wunderground v.1.15,2013-05-15 21:31:00,
2013-05-15 17:41:00,83.9,60.3,29.81,SSW,202,7.0,7.0,45,0.00,,,0.00,Wunderground v.1.15,2013-05-15 21:41:00,
2013-05-15 17:51:00,83.5,60.5,29.81,WSW,239,7.0,7.0,46,0.00,,,0.00,Wunderground v.1.15,2013-05-15 21:51:00,
2013-05-15 18:01:00,83.0,60.1,29.81,West,279,7.0,9.0,46,0.00,,,0.00,Wunderground v.1.15,2013-05-15 22:01:00,
2013-05-15 18:11:00,82.3,60.1,29.81,SW,232,6.0,6.0,47,0.00,,,0.00,Wunderground v.1.15,2013-05-15 22:11:00,
2013-05-15 18:21:00,82.4,59.5,29.81,West,265,5.0,7.0,46,0.00,,,0.00,Wunderground v.1.15,2013-05-15 22:21:00,
2013-05-15 18:31:00,82.6,60.3,29.81,South,190,7.0,7.0,47,0.00,,,0.00,Wunderground v.1.15,2013-05-15 22:31:00,
2013-05-15 18:41:00,82.4,60.1,29.81,South,181,5.0,5.0,47,0.00,,,0.00,Wunderground v.1.15,2013-05-15 22:41:00,
2013-05-15 18:51:00,82.1,60.5,29.81,SW,223,6.0,6.0,48,0.00,,,0.00,Wunderground v.1.15,2013-05-15 22:51:00,
2013-05-15 19:01:00,81.6,60.0,29.81,WSW,251,5.0,5.0,48,0.00,,,0.00,Wunderground v.1.15,2013-05-15 23:01:00,
2013-05-15 19:11:00,81.1,60.1,29.81,WSW,244,6.0,6.0,49,0.00,,,0.00,Wunderground v.1.15,2013-05-15 23:11:00,
2013-05-15 19:21:00,80.8,59.9,29.81,SW,217,6.0,6.0,49,0.00,,,0.00,Wunderground v.1.15,2013-05-15 23:21:00,
2013-05-15 19:31:00,80.5,60.1,29.82,SSW,211,6.0,6.0,50,0.00,,,0.00,Wunderground v.1.15,2013-05-15 23:31:00,
2013-05-15 19:41:00,80.1,60.3,29.82,SW,219,4.0,4.0,51,0.00,,,0.00,Wunderground v.1.15,2013-05-15 23:41:00,
2013-05-15 19:51:00,79.7,60.0,29.82,SW,229,4.0,5.0,51,0.00,,,0.00,Wunderground v.1.15,2013-05-15 23:51:00,
2013-05-15 20:01:00,79.4,59.7,29.82,SW,219,4.0,5.0,51,0.00,,,0.00,Wunderground v.1.15,2013-05-16 00:01:00,
2013-05-15 20:11:00,79.3,59.6,29.82,SW,219,3.0,3.0,51,0.00,,,0.00,Wunderground v.1.15,2013-05-16 00:11:00,
2013-05-15 20:21:00,78.9,59.8,29.83,SW,217,3.0,8.0,52,0.00,,,0.00,Wunderground v.1.15,2013-05-16 00:21:00,
2013-05-15 20:26:00,78.8,59.1,29.83,SSW,204,4.0,8.0,51,0.00,,,0.00,Wunderground v.1.15,2013-05-16 00:26:00,
2013-05-15 20:36:00,78.7,59.0,29.83,SW,225,5.0,5.0,51,0.00,,,0.00,Wunderground v.1.15,2013-05-16 00:36:00,
2013-05-15 20:51:00,77.9,58.9,29.83,SW,228,2.0,2.0,52,0.00,,,0.00,Wunderground v.1.15,2013-05-16 00:51:00,
2013-05-15 21:01:00,77.1,58.6,29.83,SW,232,2.0,2.0,53,0.00,,,0.00,Wunderground v.1.15,2013-05-16 01:01:00,
2013-05-15 21:11:00,76.7,58.8,29.83,SW,234,2.0,2.0,54,0.00,,,0.00,Wunderground v.1.15,2013-05-16 01:11:00,
2013-05-15 21:21:00,76.4,59.5,29.84,South,184,2.0,2.0,56,0.00,,,0.00,Wunderground v.1.15,2013-05-16 01:21:00,
2013-05-15 21:31:00,75.9,59.1,29.84,SW,227,3.0,4.0,56,0.00,,,0.00,Wunderground v.1.15,2013-05-16 01:31:00,
2013-05-15 21:51:00,75.7,58.9,29.84,SSW,198,4.0,4.0,56,0.00,,,0.00,Wunderground v.1.15,2013-05-16 01:51:00,
2013-05-15 22:01:00,75.4,58.6,29.84,SW,221,4.0,4.0,56,0.00,,,0.00,Wunderground v.1.15,2013-05-16 02:01:00,
2013-05-15 22:11:00,75.3,58.5,29.85,South,182,4.0,7.0,56,0.00,,,0.00,Wunderground v.1.15,2013-05-16 02:11:00,
2013-05-15 22:31:00,74.5,58.3,29.85,South,173,3.0,3.0,57,0.00,,,0.00,Wunderground v.1.15,2013-05-16 02:31:00,
2013-05-15 22:41:00,74.2,58.5,29.85,SW,215,2.0,2.0,58,0.00,,,0.00,Wunderground v.1.15,2013-05-16 02:41:00,
2013-05-15 22:51:00,73.7,58.5,29.85,SW,234,3.0,4.0,59,0.00,,,0.00,Wunderground v.1.15,2013-05-16 02:51:00,
2013-05-15 23:11:00,73.3,58.1,29.85,SW,234,4.0,4.0,59,0.00,,,0.00,Wunderground v.1.15,2013-05-16 03:11:00,
2013-05-15 23:21:00,73.0,58.3,29.84,SW,223,3.0,6.0,60,0.00,,,0.00,Wunderground v.1.15,2013-05-16 03:21:00,
2013-05-15 23:41:00,72.6,58.4,29.84,South,179,4.0,4.0,61,0.00,,,0.00,Wunderground v.1.15,2013-05-16 03:41:00,
2013-05-15 23:46:00,72.5,57.8,29.84,SSW,198,4.0,6.0,60,0.00,,,0.00,Wunderground v.1.15,2013-05-16 03:46:00,